Weather History for Taos, NM

Change the Weather History Date:

Monday, June 10, 2013

  Actual Average Record
Temperature  
Mean Temperature 72 °F -  
Max Temperature 93 °F 77 °F 93 °F (2013)
Min Temperature 51 °F 40 °F 33 °F (2008)
Cooling Degree Days 7    
Growing Degree Days 22 (Base 50)    
Moisture  
Dew Point 33 °F    
Average Humidity 27    
Maximum Humidity 54    
Minimum Humidity 11    
Precipitation  
Precipitation 0.00 in - - ()
Sea Level Pressure  
Sea Level Pressure 30.21 in    
Wind  
Wind Speed 7 mph (WSW)    
Max Wind Speed 25 mph    
Max Gust Speed 36 mph    
Visibility 10 miles    
Events      
Averages and records for this station are not official NWS values.
T = Trace of Precipitation, MM = Missing Value Source: NWS Daily Summary

Daily Weather History Graph

Daily Weather History Graph

Search for Another Location

Airport:

Trip Planner

Search our weather history database for the weather conditions in past years. The results will help you decide how hot, cold, wet, or windy it might be!

Date:

Astronomy

Jun. 10, 2013 Rise Set
Actual Time 5:44 AM MDT 8:20 PM MDT
Civil Twilight 5:13 AM MDT 8:50 PM MDT
Nautical Twilight 4:36 AM MDT 9:28 PM MDT
Astronomical Twilight 3:54 AM MDT 10:10 PM MDT
Moon 7:32 AM MDT (6/10) 9:51 PM MDT (6/10)
Length of Visible Light 15h 37m
Length of Day
14h 36m
Waxing Crescent, 4% of the Moon is Illuminated
Jun 10
Waxing Crescent
Jun 16
First Quarter
Jun 23
Full
Jun 29
Last Quarter
Jul 8
New

Hourly Weather History & Observations

Time (MDT) Temp. Dew Point Humidity Pressure Visibility Wind Dir Wind Speed Gust Speed Precip Events Conditions
12:15 AM 64.4 °F 44.6 °F 49% 30.22 in 10.0 mi East 9.2 mph - N/A   Clear
12:35 AM 62.6 °F 42.8 °F 48% 30.22 in 10.0 mi East 10.4 mph - N/A   Clear
12:55 AM 62.6 °F 41.0 °F 45% 30.23 in 10.0 mi East 9.2 mph - N/A   Clear
1:15 AM 62.6 °F 39.2 °F 42% 30.22 in 10.0 mi East 5.8 mph - N/A   Clear
1:35 AM 60.8 °F 39.2 °F 45% 30.22 in 10.0 mi East 3.5 mph - N/A   Clear
1:55 AM 59.0 °F 37.4 °F 45% 30.22 in 10.0 mi East 4.6 mph - N/A   Clear
2:15 AM 59.0 °F 35.6 °F 42% 30.22 in 10.0 mi Calm Calm - N/A   Clear
2:35 AM 55.4 °F 35.6 °F 47% 30.22 in 10.0 mi North 3.5 mph - N/A   Clear
2:55 AM 53.6 °F 35.6 °F 51% 30.22 in 10.0 mi NNE 3.5 mph - N/A   Clear
3:15 AM 53.6 °F 35.6 °F 51% 30.22 in 10.0 mi North 3.5 mph - N/A   Clear
3:35 AM 53.6 °F 35.6 °F 51% 30.23 in 10.0 mi Calm Calm - N/A   Clear
3:55 AM 55.4 °F 35.6 °F 47% 30.23 in 10.0 mi Calm Calm - N/A   Clear
4:15 AM 55.4 °F 37.4 °F 51% 30.23 in 10.0 mi Calm Calm - N/A   Clear
4:35 AM 53.6 °F 35.6 °F 51% 30.23 in 10.0 mi South 3.5 mph - N/A   Clear
4:55 AM 53.6 °F 35.6 °F 51% 30.24 in 10.0 mi ESE 3.5 mph - N/A   Clear
5:15 AM 55.4 °F 37.4 °F 51% 30.24 in 10.0 mi Calm Calm - N/A   Clear
5:35 AM 51.8 °F 35.6 °F 54% 30.24 in 10.0 mi ESE 5.8 mph - N/A   Clear
5:55 AM 53.6 °F 37.4 °F 54% 30.25 in 10.0 mi ESE 3.5 mph - N/A   Clear
6:15 AM 53.6 °F 35.6 °F 51% 30.25 in 10.0 mi East 3.5 mph - N/A   Clear
6:35 AM 53.6 °F 35.6 °F 51% 30.26 in 10.0 mi North 3.5 mph - N/A   Clear
6:55 AM 57.2 °F 39.2 °F 51% 30.26 in 10.0 mi Calm Calm - N/A   Clear
7:15 AM 60.8 °F 41.0 °F 48% 30.26 in 10.0 mi Calm Calm - N/A   Clear
7:35 AM 64.4 °F 42.8 °F 45% 30.27 in 10.0 mi North 4.6 mph - N/A   Clear
7:55 AM 68.0 °F 44.6 °F 43% 30.27 in 10.0 mi North 3.5 mph - N/A   Clear
8:15 AM 69.8 °F 44.6 °F 40% 30.27 in 10.0 mi NNW 3.5 mph - N/A   Clear
8:35 AM 73.4 °F 44.6 °F 36% 30.28 in 10.0 mi NW 3.5 mph - N/A   Clear
8:55 AM 73.4 °F 44.6 °F 36% 30.28 in 10.0 mi Calm Calm - N/A   Clear
9:15 AM 75.2 °F 44.6 °F 34% 30.28 in 10.0 mi SW 5.8 mph - N/A   Clear
9:35 AM 77.0 °F 44.6 °F 32% 30.28 in 10.0 mi SW 6.9 mph 16.1 mph N/A   Clear
9:55 AM 78.8 °F 44.6 °F 30% 30.28 in 10.0 mi SW 9.2 mph - N/A   Clear
10:15 AM 78.8 °F 44.6 °F 30% 30.28 in 10.0 mi SSW 5.8 mph - N/A   Clear
10:35 AM 80.6 °F 42.8 °F 26% 30.27 in 10.0 mi SSW 9.2 mph - N/A   Clear
10:55 AM 82.4 °F 41.0 °F 23% 30.27 in 10.0 mi SW 6.9 mph - N/A   Clear
11:15 AM 84.2 °F 39.2 °F 20% 30.26 in 10.0 mi SW 5.8 mph - N/A   Clear
11:35 AM 84.2 °F 39.2 °F 20% 30.25 in 10.0 mi Calm Calm - N/A   Clear
11:55 AM 86.0 °F 39.2 °F 19% 30.25 in 10.0 mi West 3.5 mph - N/A   Clear
12:15 PM 87.8 °F 37.4 °F 17% 30.23 in 10.0 mi WSW 9.2 mph 17.3 mph N/A   Clear
12:35 PM 89.6 °F 30.2 °F 12% 30.22 in 10.0 mi West 9.2 mph 18.4 mph N/A   Clear
12:55 PM 89.6 °F 28.4 °F 11% 30.21 in 10.0 mi West 9.2 mph - N/A   Clear
1:15 PM 89.6 °F 28.4 °F 11% 30.21 in 10.0 mi WSW 15.0 mph 21.9 mph N/A   Clear
1:35 PM 93.2 °F 30.2 °F 11% 30.20 in 10.0 mi NW 15.0 mph 18.4 mph N/A   Clear
1:55 PM 89.6 °F 28.4 °F 11% 30.20 in 10.0 mi WNW 6.9 mph 18.4 mph N/A   Clear
2:15 PM 87.8 °F 28.4 °F 12% 30.20 in 10.0 mi West 17.3 mph 20.7 mph N/A   Clear
2:35 PM 87.8 °F 28.4 °F 12% 30.21 in 10.0 mi WNW 25.3 mph 32.2 mph N/A   Clear
2:55 PM 82.4 °F 28.4 °F 14% 30.21 in 10.0 mi NW 24.2 mph 35.7 mph N/A   Clear
3:15 PM 84.2 °F 28.4 °F 13% 30.21 in 10.0 mi NNW 15.0 mph - N/A   Clear
3:35 PM 87.8 °F 28.4 °F 12% 30.20 in 10.0 mi NNW 9.2 mph 18.4 mph N/A   Clear
3:55 PM 86.0 °F 26.6 °F 12% 30.19 in 10.0 mi NNW 11.5 mph - N/A   Clear
4:15 PM 87.8 °F 28.4 °F 12% 30.18 in 10.0 mi NW 13.8 mph 21.9 mph N/A   Clear
4:35 PM 91.4 °F 30.2 °F 11% 30.16 in 10.0 mi WNW 21.9 mph 27.6 mph N/A   Clear
4:55 PM 87.8 °F 28.4 °F 12% 30.17 in 10.0 mi West 20.7 mph 24.2 mph N/A   Clear
5:15 PM 87.8 °F 26.6 °F 11% 30.17 in 10.0 mi WNW 18.4 mph 23.0 mph N/A   Clear
5:35 PM 89.6 °F 28.4 °F 11% 30.16 in 10.0 mi West 16.1 mph 20.7 mph N/A   Clear
5:55 PM 87.8 °F 26.6 °F 11% 30.15 in 10.0 mi West 9.2 mph - N/A   Clear
6:15 PM 87.8 °F 26.6 °F 11% 30.14 in 10.0 mi WSW 10.4 mph 16.1 mph N/A   Clear
6:35 PM 87.8 °F 26.6 °F 11% 30.14 in 10.0 mi SSW 9.2 mph - N/A   Clear
6:55 PM 87.8 °F 26.6 °F 11% 30.14 in 10.0 mi SSW 17.3 mph - N/A   Clear
7:15 PM 86.0 °F 26.6 °F 12% 30.14 in 10.0 mi SW 13.8 mph - N/A   Clear
7:35 PM 86.0 °F 26.6 °F 12% 30.14 in 10.0 mi SW 9.2 mph - N/A   Clear
7:55 PM 84.2 °F 24.8 °F 11% 30.14 in 10.0 mi WSW 9.2 mph - N/A   Clear
8:15 PM 82.4 °F 24.8 °F 12% 30.14 in 10.0 mi West 8.1 mph - N/A   Clear
8:35 PM 82.4 °F 24.8 °F 12% 30.15 in 10.0 mi SW 17.3 mph - N/A   Partly Cloudy
8:55 PM 82.4 °F 24.8 °F 12% 30.16 in 10.0 mi SW 11.5 mph - N/A   Scattered Clouds
9:15 PM 82.4 °F 24.8 °F 12% 30.16 in 10.0 mi South 8.1 mph 31.1 mph N/A   Scattered Clouds
9:35 PM 82.4 °F 24.8 °F 12% 30.17 in 10.0 mi SW 8.1 mph - N/A   Partly Cloudy
9:55 PM 82.4 °F 24.8 °F 12% 30.17 in 10.0 mi SW 23.0 mph 31.1 mph N/A   Clear
10:15 PM 82.4 °F 24.8 °F 12% 30.17 in 10.0 mi SSW 20.7 mph 25.3 mph N/A   Clear
10:35 PM 80.6 °F 24.8 °F 13% 30.18 in 10.0 mi WSW 11.5 mph - N/A   Clear
10:55 PM 78.8 °F 23.0 °F 13% 30.19 in 10.0 mi WSW 11.5 mph - N/A   Partly Cloudy
11:15 PM 78.8 °F 24.8 °F 14% 30.20 in 10.0 mi SW 13.8 mph 18.4 mph N/A   Partly Cloudy
11:35 PM 75.2 °F 24.8 °F 15% 30.20 in 10.0 mi Calm Calm - N/A   Clear
11:55 PM 73.4 °F 24.8 °F 16% 30.20 in 10.0 mi East 4.6 mph - N/A   Clear